Tracking 19625 objects as of 26-May-2019
HD Live streaming from Space Station
objects crossing your sky now
Watch Starlink satellites crossing your sky!

THORAD AGENA D DEB

Track THORAD AGENA D DEB now!
10-day predictions


NORAD ID: 42508
Int'l Code: 1970-025RN
Perigee: 848.3 km
Apogee: 1,027.3 km
Inclination: 99.8 °
Period: 103.6 minutes
Semi major axis: 7308 km
RCS: Unknown
Launch date: April 8, 1970
Source: United States (US)
Launch site: AIR FORCE WESTERN TEST RANGE (AFWTR)

Note: This is SATELLITE DEBRIS
aabbcc
Your satellite tracking list
Your tracking list is empty




NASA's NSSDC Master Catalog

Two Line Element Set (TLE):
1 42508U 70025RN  19143.36418075  .00000107  00000-0  12105-3 0  9995
2 42508  99.8143 195.6151 0122483 341.2356  18.4305 13.89421243817663
Source of the keplerian elements: AFSPC